Weather History for Ingleside, TX

Change the Weather History Date:

Tuesday, May 28, 2013

  Actual Average Record
Temperature  
Mean Temperature 84 °F -  
Max Temperature 88 °F - - ()
Min Temperature 80 °F - - ()
Cooling Degree Days 19    
Growing Degree Days 34 (Base 50)    
Moisture  
Dew Point 74 °F    
Average Humidity 74    
Maximum Humidity 85    
Minimum Humidity 60    
Precipitation  
Precipitation 0.00 in - - ()
Sea Level Pressure  
Sea Level Pressure 29.85 in    
Wind  
Wind Speed 20 mph (SSE)    
Max Wind Speed 30 mph    
Max Gust Speed 37 mph    
Visibility 10 miles    
Events      
T = Trace of Precipitation, MM = Missing Value Source: NWS Daily Summary

Daily Weather History Graph

Daily Weather History Graph

Search for Another Location

Airport:

Trip Planner

Search our weather history database for the weather conditions in past years. The results will help you decide how hot, cold, wet, or windy it might be!

Date:

Astronomy

May. 28, 2013 Rise Set
Actual Time 6:33 AM CDT 8:18 PM CDT
Civil Twilight 6:07 AM CDT 8:45 PM CDT
Nautical Twilight 5:36 AM CDT 9:16 PM CDT
Astronomical Twilight 5:02 AM CDT 9:49 PM CDT
Moon 11:54 PM CDT (5/28) 10:15 AM CDT (5/28)
Length of Visible Light 14h 37m
Length of Day
13h 45m
Waning Gibbous, 82% of the Moon is Illuminated
May 28
Waning Gibbous
May 31
Last Quarter
Jun 8
New
Jun 16
First Quarter
Jun 23
Full

Hourly Weather History & Observations

Time (CDT) Temp. Heat Index Dew Point Humidity Pressure Visibility Wind Dir Wind Speed Gust Speed Precip Events Conditions
12:15 AM 80.6 °F 85.7 °F 74.1 °F 81% 29.92 in 10.0 mi SE 18.4 mph 23.0 mph N/A   Overcast
12:35 AM 80.2 °F 85.0 °F 74.3 °F 82% 29.92 in 10.0 mi SE 16.1 mph 27.6 mph N/A   Mostly Cloudy
12:55 AM 80.1 °F 84.8 °F 74.7 °F 83% 29.91 in 10.0 mi SE 18.4 mph 25.3 mph N/A   Mostly Cloudy
1:15 AM 80.2 °F 85.2 °F 74.7 °F 83% 29.91 in 10.0 mi SE 18.4 mph 25.3 mph N/A   Overcast
1:35 AM 80.6 °F 85.9 °F 74.7 °F 82% 29.91 in 10.0 mi SSE 18.4 mph 28.8 mph N/A   Overcast
1:55 AM 80.6 °F 85.9 °F 74.7 °F 82% 29.91 in 10.0 mi SSE 17.3 mph 21.9 mph N/A   Overcast
2:15 AM 80.6 °F 85.9 °F 74.5 °F 82% 29.89 in 10.0 mi SSE 20.7 mph 26.5 mph N/A   Mostly Cloudy
2:35 AM 80.6 °F 85.7 °F 74.3 °F 81% 29.89 in 10.0 mi SSE 19.6 mph 28.8 mph N/A   Mostly Cloudy
2:55 AM 80.4 °F 85.5 °F 74.3 °F 82% 29.88 in 10.0 mi SSE 21.9 mph 27.6 mph N/A   Overcast
3:15 AM 80.2 °F 85.2 °F 74.5 °F 83% 29.87 in 10.0 mi SSE 21.9 mph 27.6 mph N/A   Overcast
3:35 AM 80.2 °F 85.0 °F 74.3 °F 82% 29.87 in 10.0 mi SSE 21.9 mph 28.8 mph N/A   Overcast
3:55 AM 80.2 °F 85.0 °F 74.3 °F 82% 29.87 in 10.0 mi SSE 18.4 mph 28.8 mph N/A   Overcast
4:15 AM 80.4 °F 85.5 °F 74.3 °F 82% 29.87 in 10.0 mi SSE 18.4 mph 25.3 mph N/A   Overcast
4:35 AM 80.2 °F 85.0 °F 74.1 °F 82% 29.86 in 10.0 mi SSE 19.6 mph 26.5 mph N/A   Overcast
4:55 AM 80.2 °F 85.0 °F 74.3 °F 82% 29.86 in 10.0 mi SSE 16.1 mph 21.9 mph N/A   Overcast
5:15 AM 80.1 °F 84.8 °F 74.5 °F 83% 29.86 in 10.0 mi SSE 19.6 mph 25.3 mph N/A   Mostly Cloudy
5:35 AM 80.1 °F 85.1 °F 75.0 °F 85% 29.85 in 10.0 mi SSE 17.3 mph 23.0 mph N/A   Mostly Cloudy
5:55 AM 80.2 °F 85.5 °F 75.2 °F 85% 29.86 in 10.0 mi SSE 16.1 mph 23.0 mph N/A   Overcast
6:15 AM 80.4 °F 85.8 °F 75.0 °F 84% 29.85 in 10.0 mi SSE 16.1 mph 25.3 mph N/A   Overcast
6:35 AM 80.6 °F 86.0 °F 74.8 °F 83% 29.85 in 10.0 mi SSE 20.7 mph 26.5 mph N/A   Mostly Cloudy
6:55 AM 80.6 °F 85.9 °F 74.7 °F 82% 29.85 in 10.0 mi SSE 20.7 mph 25.3 mph N/A   Overcast
7:15 AM 80.6 °F 86.0 °F 75.0 °F 83% 29.86 in 10.0 mi SSE 15.0 mph 26.5 mph N/A   Overcast
7:35 AM 81.0 °F 86.7 °F 75.0 °F 82% 29.85 in 10.0 mi SSE 19.6 mph 25.3 mph N/A   Overcast
7:55 AM 81.3 °F 87.2 °F 74.7 °F 80% 29.86 in 10.0 mi SSE 17.3 mph 24.2 mph N/A   Overcast
8:15 AM 81.7 °F 87.8 °F 74.7 °F 79% 29.86 in 10.0 mi SSE 21.9 mph 27.6 mph N/A   Overcast
8:35 AM 82.2 °F 88.5 °F 74.3 °F 77% 29.87 in 10.0 mi South 16.1 mph 26.5 mph N/A   Overcast
8:55 AM 82.9 °F 89.7 °F 74.1 °F 75% 29.87 in 10.0 mi SSE 21.9 mph 27.6 mph N/A   Mostly Cloudy
9:15 AM 83.1 °F 89.8 °F 74.1 °F 74% 29.87 in 10.0 mi SSE 21.9 mph 29.9 mph N/A   Mostly Cloudy
9:35 AM 84.2 °F 91.6 °F 74.1 °F 72% 29.87 in 10.0 mi SSE 24.2 mph 31.1 mph N/A   Overcast
9:55 AM 84.9 °F 92.5 °F 74.1 °F 70% 29.87 in 10.0 mi SSE 23.0 mph 31.1 mph N/A   Mostly Cloudy
10:15 AM 84.7 °F 91.7 °F 73.8 °F 69% 29.87 in 10.0 mi South 19.6 mph 31.1 mph N/A   Overcast
10:35 AM 84.7 °F 91.7 °F 73.8 °F 69% 29.88 in 10.0 mi South 21.9 mph 29.9 mph N/A   Overcast
10:55 AM 85.3 °F 92.6 °F 73.8 °F 68% 29.87 in 10.0 mi SSE 23.0 mph 29.9 mph N/A   Overcast
11:15 AM 86.0 °F 93.8 °F 73.9 °F 67% 29.87 in 10.0 mi SSE 24.2 mph 32.2 mph N/A   Mostly Cloudy
11:35 AM 86.7 °F 94.6 °F 73.8 °F 65% 29.88 in 10.0 mi SSE 18.4 mph 28.8 mph N/A   Overcast
11:55 AM 86.5 °F 94.6 °F 74.1 °F 66% 29.88 in 10.0 mi SSE 19.6 mph 31.1 mph N/A   Overcast
12:15 PM 86.2 °F 93.8 °F 73.8 °F 66% 29.87 in 10.0 mi SSE 23.0 mph 29.9 mph N/A   Overcast
12:35 PM 86.4 °F 94.2 °F 73.9 °F 66% 29.87 in 10.0 mi SSE 20.7 mph 31.1 mph N/A   Overcast
12:55 PM 86.7 °F 95.0 °F 74.1 °F 66% 29.87 in 10.0 mi SSE 23.0 mph 27.6 mph N/A   Overcast
1:15 PM 87.1 °F 95.4 °F 73.9 °F 65% 29.86 in 10.0 mi SE 23.0 mph 31.1 mph N/A   Overcast
1:35 PM 86.7 °F 94.6 °F 73.8 °F 65% 29.86 in 10.0 mi SSE 18.4 mph 31.1 mph N/A   Overcast
1:55 PM 86.9 °F 95.0 °F 73.9 °F 65% 29.86 in 10.0 mi SSE 25.3 mph 28.8 mph N/A   Overcast
2:15 PM 87.1 °F 94.9 °F 73.4 °F 64% 29.85 in 10.0 mi SE 24.2 mph 31.1 mph N/A   Overcast
2:35 PM 87.3 °F 94.9 °F 73.4 °F 63% 29.85 in 10.0 mi SSE 20.7 mph 31.1 mph N/A   Mostly Cloudy
2:55 PM 88.0 °F 96.0 °F 73.4 °F 62% 29.85 in 10.0 mi SSE 21.9 mph 31.1 mph N/A   Overcast
3:15 PM 87.8 °F 95.6 °F 73.2 °F 62% 29.84 in 10.0 mi SE 23.0 mph 32.2 mph N/A   Mostly Cloudy
3:35 PM 88.7 °F 96.7 °F 73.0 °F 60% 29.84 in 10.0 mi SE 25.3 mph 31.1 mph N/A   Mostly Cloudy
3:55 PM 88.9 °F 97.1 °F 73.2 °F 60% 29.83 in 10.0 mi SE 25.3 mph 33.4 mph N/A   Scattered Clouds
4:15 PM 88.3 °F 96.4 °F 73.2 °F 61% 29.83 in 10.0 mi SE 26.5 mph 34.5 mph N/A   Scattered Clouds
4:35 PM 88.2 °F 96.0 °F 73.4 °F 61% 29.81 in 10.0 mi SE 27.6 mph 36.8 mph N/A   Scattered Clouds
4:55 PM 87.4 °F 95.3 °F 73.4 °F 63% 29.81 in 10.0 mi SE 28.8 mph 34.5 mph N/A   Scattered Clouds
5:15 PM 86.9 °F 94.5 °F 73.6 °F 64% 29.81 in 10.0 mi SE 29.9 mph 36.8 mph N/A   Scattered Clouds
5:35 PM 86.5 °F 94.2 °F 73.4 °F 65% 29.80 in 10.0 mi SE 28.8 mph 36.8 mph N/A   Scattered Clouds
5:55 PM 85.5 °F 92.6 °F 73.6 °F 67% 29.80 in 10.0 mi SE 26.5 mph 36.8 mph N/A   Scattered Clouds
6:15 PM 84.9 °F 91.8 °F 73.4 °F 68% 29.80 in 10.0 mi SE 24.2 mph 34.5 mph N/A   Mostly Cloudy
6:35 PM 84.6 °F 91.4 °F 73.6 °F 69% 29.80 in 10.0 mi SE 20.7 mph 34.5 mph N/A   Mostly Cloudy
6:55 PM 84.0 °F 90.8 °F 73.8 °F 71% 29.80 in 10.0 mi SE 20.7 mph 28.8 mph N/A   Mostly Cloudy
7:15 PM 82.9 °F 89.4 °F 73.9 °F 74% 29.80 in 10.0 mi SE 23.0 mph 31.1 mph N/A   Overcast
7:35 PM 82.4 °F 88.4 °F 73.8 °F 75% 29.80 in 10.0 mi SSE 20.7 mph 32.2 mph N/A   Overcast
7:55 PM 82.0 °F 87.9 °F 73.8 °F 76% 29.80 in 10.0 mi SE 16.1 mph 32.2 mph N/A   Mostly Cloudy
8:15 PM 81.7 °F 87.3 °F 73.8 °F 77% 29.80 in 10.0 mi SE 24.2 mph 31.1 mph N/A   Mostly Cloudy
8:35 PM 81.1 °F 86.4 °F 73.6 °F 78% 29.81 in 10.0 mi SE 21.9 mph 31.1 mph N/A   Scattered Clouds
8:55 PM 81.0 °F 86.2 °F 73.8 °F 79% 29.81 in 10.0 mi SE 21.9 mph 33.4 mph N/A   Mostly Cloudy
9:15 PM 80.8 °F 85.8 °F 73.6 °F 79% 29.80 in 10.0 mi SE 24.2 mph 31.1 mph N/A   Scattered Clouds
9:35 PM 80.6 °F 85.4 °F 73.4 °F 79% 29.80 in 10.0 mi SE 21.9 mph 31.1 mph N/A   Scattered Clouds
9:55 PM 80.6 °F 85.4 °F 73.4 °F 79% 29.81 in 10.0 mi SE 24.2 mph 29.9 mph N/A   Mostly Cloudy
10:15 PM 80.8 °F 85.6 °F 73.4 °F 78% 29.81 in 10.0 mi SE 20.7 mph 29.9 mph N/A   Mostly Cloudy
10:35 PM 80.6 °F 85.4 °F 73.4 °F 79% 29.81 in 10.0 mi SE 23.0 mph 28.8 mph N/A   Mostly Cloudy
10:55 PM 80.6 °F 85.4 °F 73.4 °F 79% 29.82 in 10.0 mi SE 21.9 mph 31.1 mph N/A   Mostly Cloudy
11:15 PM 80.6 °F 85.2 °F 73.2 °F 78% 29.82 in 10.0 mi SE 25.3 mph 31.1 mph N/A   Mostly Cloudy
11:35 PM 80.6 °F 85.4 °F 73.4 °F 79% 29.81 in 10.0 mi SE 23.0 mph 29.9 mph N/A   Mostly Cloudy
11:55 PM 80.6 °F 85.4 °F 73.4 °F 79% 29.81 in 10.0 mi SE 25.3 mph 33.4 mph N/A   Mostly Cloudy